Location: Unspecified
(0.0000°N, 0.0000°E)
Time: 10:10:53
(UTC+00:00)

A-11 Canister half - Pass Details

Date: 09 August 2021
Orbit: 1515 x 1685 km, 47.2° (Epoch: 27 September)

Event Time Altitude Azimuth Distance (km) Brightness Sun altitude
Rises 11:28:08 0° 219° (SW) 4,656 11.3 71.8°
Reaches altitude 10° 11:31:09 10° 218° (SW) 3,673 10.9 72.2°
Maximum altitude 11:40:25 87° 129° (SE) 1,530 10.9 73.1°
Drops below altitude 10° 11:49:51 10° 41° (NE) 3,736 11.4 73.8°
Sets 11:52:57 0° 41° (NE) 4,740 11.8 74.0°
